Simultaneous Nadir Overpasses (SNOs) Predictions

Prediction of SNOs between AQUA and METOP-B Satellite Orbit:

Table of predicted SNOs for the next 14.0 days since TLE Epoch: 5/2/2020
Index Date (AQUA) Time (AQUA) Lat,Lon (AQUA) SZA (AQUA ) Date (METOP-B) Time (METOP-B) Lat,Lon (METOP-B) SZA (METOP-B ) Distance(km) Time Diff (sec)
1 05/02/2020 17:53:11 73.76, -93.86 58.06 05/02/2020 17:52:12 73.78, -93.88 58.09 2.75 59
2 05/02/2020 18:42:38 -73.86, 73.57 121.85 05/02/2020 18:42:52 -73.86, 73.63 121.85 2.05 14
3 05/02/2020 19:32:15 74.33,-119.87 58.64 05/02/2020 19:33:23 74.31,-117.93 58.56 58.39 68
4 05/05/2020 13:27:25 73.76, -27.43 57.25 05/05/2020 13:26:35 73.76, -27.53 57.26 3.29 50
5 05/05/2020 14:16:52 -73.86, 140.01 122.67 05/05/2020 14:17:15 -73.84, 139.99 122.68 1.64 23
6 05/08/2020 09:01:39 73.78, 38.99 56.49 05/08/2020 09:00:57 73.78, 38.93 56.50 1.97 42
7 05/08/2020 09:51:06 -73.86,-153.56 123.44 05/08/2020 09:51:37 -73.87,-153.53 123.43 1.42 31
8 05/11/2020 04:35:52 73.79, 105.39 55.77 05/11/2020 04:35:18 73.80, 105.39 55.79 1.15 34
9 05/11/2020 05:25:19 -73.87, -87.14 124.16 05/11/2020 05:25:59 -73.85, -87.18 124.18 2.70 40
10 05/14/2020 00:10:06 73.82, 171.78 55.10 05/14/2020 00:09:40 73.82, 171.84 55.11 2.05 26
11 05/14/2020 00:59:33 -73.89, -20.73 124.84 05/14/2020 01:00:21 -73.88, -20.71 124.85 1.36 48




NCC Satellite Simultaneous Nadir Overpasses (SNOs) Prediction Service
